Regional Weather Roundup
Issued by NWS Grand Forks, ND

Home | Current Version | Previous Version | Graphics & Text | Print | Product List | Glossary On
Versions: 1 2 3 4 5 6 7 8 9 10 11 12 13 14 15 16 17 18 19 20 21 22 23 24 25 26 27 28 29 30 31 32 33 34 35 36 37 38 39 40 41 42 43 44 45 46 47 48 49 50
000
ASUS43 KFGF 301831
RWRFGF
PRAIRIE TO PINES  WEATHER ROUNDUP
NATIONAL WEATHER SERVICE EASTERN NORTH DAKOTA/GRAND FORKS ND
100 PM CDT TUE JUN 30 2015

 **SATELLITE DATA USED TO AUGMENT SKY COVER AT AUTOMATED STATIONS**
 *****  WEATHER ACROSS EASTERN NORTH DAKOTA  *****

CITY           SKY/WX    TMP DP  RH WIND       PRES   REMARKS
GRAND FORKS    CLOUDY    73  57  57 SE3       29.94F
6HR MIN TEMP:  57; 6HR MAX TEMP:  74;

GRAND FRKS AFB PTSUNNY   72  60  65 SE5       29.95S
GRAND FRKS NWS   N/A     75 N/A N/A SE2         N/A
DEVILS LAKE    CLOUDY    68  57  68 SE8       29.93F
6HR MIN TEMP:  61; 6HR MAX TEMP:  68;

FARGO          PTSUNNY   74  57  55 E5        29.94S
WAHPETON ARPT  CLOUDY    70  57  64 E6        29.95S
$$

 ***** WEATHER ACROSS CENTRAL AND WESTERN NORTH DAKOTA  *****

CITY           SKY/WX    TMP DP  RH WIND       PRES   REMARKS
BISMARCK       CLOUDY    70  65  84 S7        29.93F
6HR MIN TEMP:  66; 6HR MAX TEMP:  70; 6HR PCP: TRACE;

MINOT          CLOUDY    69  63  81 CALM      29.91F
6HR MIN TEMP:  63; 6HR MAX TEMP:  69;

JAMESTOWN      CLOUDY    70  60  70 SE7       29.94F
6HR MIN TEMP:  62; 6HR MAX TEMP:  70;

MINOT AFB      CLOUDY    71  71  99 S3        29.91S
GARRISON         N/A     70  66  87 SE3       29.91F
WILLISTON      CLOUDY    79  53  40 E14       29.91S
6HR MIN TEMP:  65; 6HR MAX TEMP:  83; 6HR PCP:  0.01;

DICKINSON      CLOUDY    71  65  81 E9        29.92F
6HR MIN TEMP:  67; 6HR MAX TEMP:  71; 6HR PCP: TRACE;

HETTINGER      CLOUDY    71  62  73 SE12      29.94S
6HR MIN TEMP:  65; 6HR MAX TEMP:  71;

$$

 *****  OTHER AIRPORT OBSERVATIONS IN OUR AREA  *****

CITY           SKY/WX    TMP DP  RH WIND       PRES   REMARKS
WALHALLA       FAIR      70  66  88 MISG      29.95S
GRAFTON AIRPOR FAIR      72  59  64 S5        29.95F
VALLEY CITY AR FAIR      70  64  83 SE7       29.95F
CANDO          FAIR      66  63  88 E9        29.93F
CAVALIER APRT  FAIR      72  59  64 SW3       29.94F
GWINNER        NOT AVBL
SHEYENNE NWR     N/A     71  61  70 SE6       29.95S
ROLLA          FAIR      66  63  88 E8        29.96F
 ***** THE ABOVE OBSERVATIONS ARE NON NWS ARE NOT QUALITY
       CONTROLLED AND MAY MIS-REPORT RAIN FOR SNOW...
$$

  *****  WEATHER ACROSS NORTHERN MINNESOTA  *****

CITY           SKY/WX    TMP DP  RH WIND       PRES   REMARKS
FLAG ISLAND    PTSUNNY   66  52  59 S7        29.97F
WARROAD        PTSUNNY   66  59  77 NE8       29.98S
ROSEAU         PTSUNNY   72  59  64 NE3       29.96F
HALLOCK        CLOUDY    73  63  68 SW5       29.94F
THF RVR FALLS  CLOUDY    70  57  64 CALM      29.97S
6HR MIN TEMP:  57; 6HR MAX TEMP:  70;

BAUDETTE       PTSUNNY   68  51  54 E6        29.97F
6HR MIN TEMP:  56; 6HR MAX TEMP:  69;

WASKISH        PTSUNNY   72  54  53 CALM      29.96F
CROOKSTON      CLOUDY    72  61  68 NE5       29.96S
$$
  *****  WEATHER ACROSS CENTRAL AND WEST MINNESOTA  *****

CITY           SKY/WX    TMP DP  RH WIND       PRES   REMARKS
FOSSTON        PTSUNNY   72  57  60 CALM      29.97S
BEMIDJI        PTSUNNY   70  56  60 E5        29.96F
PARK RAPIDS    MOSUNNY   73  52  47 VRB5      29.96S
6HR MIN TEMP:  58; 6HR MAX TEMP:  75;

ELBOW LAKE     FAIR      73  58  58 E5        29.95S
6HR MIN TEMP:  62; 6HR MAX TEMP:  72;

WADENA         MOSUNNY   73  55  53 E6        29.95F
DETROIT LAKES  PTSUNNY   73  52  46 CALM      29.97S
MOORHEAD       PTSUNNY   73  57  56 CALM      29.96R
FERGUS FALLS   CLOUDY    73  57  56 SE5       29.94S
MORRIS MN      CLOUDY    72  59  64 E7        29.93F
STAPLES        MOSUNNY   72  54  53 CALM      29.95F
$$
  *****  WEATHER ELSEWHERE ACROSS MINNESOTA  *****

CITY           SKY/WX    TMP DP  RH WIND       PRES   REMARKS
DULUTH         MOSUNNY   61  48  62 E9        29.98F
6HR MIN TEMP:  55; 6HR MAX TEMP:  62; 6HR PCP: TRACE;

INTRNTL FALLS  MOSUNNY   66  49  54 NE9       29.99S
6HR MIN TEMP:  55; 6HR MAX TEMP:  67;

ELY            SUNNY     64  45  48 N3        29.98S
CLOQUET        PTSUNNY   63  52  67 NE6       29.99R
WHEATON        CLOUDY    66  59  77 E5        29.96S
BRAINERD       MOSUNNY   73  52  47 N7        29.96S
6HR MIN TEMP:  59; 6HR MAX TEMP:  73;

HIBBING        SUNNY     67  50  54 CALM      29.97F
6HR MIN TEMP:  55; 6HR MAX TEMP:  67;

ALEXANDRIA     PTSUNNY   73  56  54 MISG      29.97F
6HR MIN TEMP:  61; 6HR MAX TEMP:  74;

SAINT CLOUD    MOSUNNY   73  57  57 VRB3      29.95S
6HR MIN TEMP:  59; 6HR MAX TEMP:  74;

MINNEAPOLIS    MOSUNNY   72  58  61 N9        29.94S
6HR MIN TEMP:  63; 6HR MAX TEMP:  73;

$$

  *****  WEATHER ACROSS SOUTH DAKOTA  *****

CITY           SKY/WX    TMP DP  RH WIND       PRES   REMARKS
SIOUX FALLS    CLOUDY    75  63  66 SE3       29.93F
6HR MIN TEMP:  65; 6HR MAX TEMP:  76; 6HR PCP: TRACE;

BROOKINGS      PTSUNNY   75  64  69 SE8       29.95F
WATERTOWN      CLOUDY    73  62  68 E6        29.94S
6HR MIN TEMP:  62; 6HR MAX TEMP:  75;

HURON          CLOUDY    71  66  84 S7        29.92R
6HR MIN TEMP:  67; 6HR MAX TEMP:  71; 6HR PCP:  0.01;

SISSETON         N/A     70  61  73 SE8       29.93S
ABERDEEN       CLOUDY    73  65  75 NW3       29.93S
6HR MIN TEMP:  65; 6HR MAX TEMP:  75; 6HR PCP: TRACE;

MITCHELL       RAIN      70  68  93 SW8       29.92F FOG
PIERRE         CLOUDY    75  65  70 E13       29.88F
6HR MIN TEMP:  69; 6HR MAX TEMP:  79;

MOBRIDGE       CLOUDY    74  68  81 E5        29.90S
RAPID CITY     CLOUDY    79  64  60 S5        29.92F
6HR MIN TEMP:  66; 6HR MAX TEMP:  79;

$$

  *****  SOME WEATHER IN NEARBY STATES *****

CITY           SKY/WX    TMP DP  RH WIND       PRES   REMARKS
GLASGOW MT     NOT AVBL
GREAT FALLS MT SUNNY     88  45  22 W18G29    29.98F
6HR MIN TEMP:  66; 6HR MAX TEMP:  89;

CHEYENNE WY    SUNNY     87  44  22 VRB3      30.17F
6HR MIN TEMP:  57; 6HR MAX TEMP:  89;

SCOTTSBLUFF NE MOSUNNY   91  57  31 VRB6      30.00F
6HR MIN TEMP:  60; 6HR MAX TEMP:  91;

OMAHA NE       LGT RAIN  75  67  76 NW3       29.95R HAZE
6HR MIN TEMP:  68; 6HR MAX TEMP:  77; 6HR PCP: TRACE;

DES MOINES IA  CLOUDY    80  65  59 VRB5      29.90R
6HR MIN TEMP:  68; 6HR MAX TEMP:  80;

DAVENPORT IA   SUNNY     78  63  59 N10       29.87R
6HR MIN TEMP:  63; 6HR MAX TEMP:  78;

CHICAGO IL     PTSUNNY   74  61  63 NW10      29.81F
6HR MIN TEMP:  63; 6HR MAX TEMP:  74;

EAU CLAIRE WI  SUNNY     71  55  56 N12       29.92S
6HR MIN TEMP:  60; 6HR MAX TEMP:  72;

LA CROSSE WI   CLOUDY    69  60  73 NW9       29.90F
6HR MIN TEMP:  61; 6HR MAX TEMP:  70;

$$

  *****  SOME NATIONAL WEATHER *****

CITY           SKY/WX    TMP DP  RH WIND       PRES   REMARKS
LA GUARDIA NY  PTSUNNY   81  55  40 S18G26    29.93F
6HR MIN TEMP:  72; 6HR MAX TEMP:  81;

RALEIGH NC     MOSUNNY   89  67  47 VRB3      29.92F HX  92
6HR MIN TEMP:  75; 6HR MAX TEMP:  90;

ATLANTA GA     PTSUNNY   82  68  62 W13       30.00F
6HR MIN TEMP:  72; 6HR MAX TEMP:  83; 6HR PCP:  0.07;

NEW ORLEANS LA MOSUNNY   90  71  53 W9G16     30.08F HX  96
6HR MIN TEMP:  80; 6HR MAX TEMP:  90;

OKLAHOMA CITY  MOSUNNY   88  67  49 SW10      30.02F HX  91
6HR MIN TEMP:  67; 6HR MAX TEMP:  88;

ALBUQUERQUE NM MOSUNNY   83  47  28 W3        30.23F
6HR MIN TEMP:  69; 6HR MAX TEMP:  84;

SALT LAKE CITY MOSUNNY   94  50  22 SW8       30.05F HX  91
6HR MIN TEMP:  79; 6HR MAX TEMP:  95;

LOS ANGELES CA MOSUNNY   77  65  66 W8        29.90S
6HR MIN TEMP:  65; 6HR MAX TEMP:  77;

BOISE ID       SUNNY     90  57  32 VRB7      30.01F


USA.gov is the U.S. government's official web portal to all federal, state and local government web resources and services.